Weather History for KCON - March, 2013

Change the Weather History Date:

Monday, March 4, 2013

  Actual Average Record
Temperature  
Mean Temperature 31 °F 29 °F  
Max Temperature 34 °F 40 °F 61 °F (1880)
Min Temperature 27 °F 19 °F -10 °F (1982)
Degree Days  
Heating Degree Days 34 36  
Month to date heating degree days 131 146  
Since 1 July heating degree days 5060 5406  
Cooling Degree Days 0 0  
Month to date cooling degree days 0 0  
Year to date cooling degree days 0 0  
Moisture  
Dew Point 22 °F    
Average Humidity 77    
Maximum Humidity 85    
Minimum Humidity 69    
Precipitation  
Precipitation 0.01 in 0.09 in 0.80 in (1991)
Month to date precipitation 0.04 0.39  
Year to date precipitation 5.13 5.71  
Snow  
Snow T in 0.40 in 12.00 in (1891)
Month to date snowfall 0.5 1.8  
Since 1 July snowfall 67.7 49.3  
Snow Depth 12.00 in    
Sea Level Pressure  
Sea Level Pressure 29.64 in    
Wind  
Wind Speed 15 mph (NW)    
Max Wind Speed 24 mph    
Max Gust Speed 31 mph    
Visibility 7 miles    
Events Snow    
T = Trace of Precipitation, MM = Missing Value Source: NWS Daily Summary

Daily Weather History Graph

Daily Weather History Graph

Search for Another Location

Airport or City:

Trip Planner

Search our weather history database for the weather conditions in past years. The results will help you decide how hot, cold, wet, or windy it might be!

Date:

Astronomy

Mar. 04, 2013 Rise Set
Actual Time 6:16 AM EST 5:39 PM EST
Civil Twilight 5:48 AM EST 6:07 PM EST
Nautical Twilight 5:15 AM EST 6:40 PM EST
Astronomical Twilight 4:42 AM EST 7:13 PM EST
Moon 12:29 AM EST (3/4) 10:11 AM EST (3/4)
Length of Visible Light 12h 19m
Length of Day
11h 22m
Waning Gibbous, 52% of the Moon is Illuminated
Mar 4
Waning Gibbous
Mar 4
Last Quarter
Mar 11
New
Mar 19
First Quarter
Mar 27
Full

Hourly Weather History & Observations

Time (EST) Temp. Windchill Dew Point Humidity Pressure Visibility Wind Dir Wind Speed Gust Speed Precip Events Conditions
12:51 AM 30.0 °F 19.5 °F 21.9 °F 72% 29.61 in 10.0 mi WNW 13.8 mph 20.7 mph N/A   Overcast
1:51 AM 30.0 °F 19.1 °F 21.0 °F 69% 29.62 in 10.0 mi NW 15.0 mph 24.2 mph N/A   Overcast
2:51 AM 28.9 °F 20.4 °F 19.9 °F 69% 29.61 in 10.0 mi NW 9.2 mph - N/A   Mostly Cloudy
3:03 AM 28.4 °F 19.7 °F 19.4 °F 69% 29.60 in 10.0 mi NW 9.2 mph 17.3 mph N/A   Scattered Clouds
3:51 AM 28.0 °F 18.6 °F 19.0 °F 69% 29.62 in 10.0 mi NW 10.4 mph - N/A   Mostly Cloudy
4:51 AM 28.0 °F 17.0 °F 19.9 °F 72% 29.62 in 10.0 mi WNW 13.8 mph - N/A   Partly Cloudy
5:51 AM 27.0 °F 15.2 °F 19.0 °F 72% 29.62 in 10.0 mi NW 15.0 mph 23.0 mph N/A   Clear
6:20 AM 28.4 °F 15.4 °F 19.4 °F 69% 29.61 in 10.0 mi NW 19.6 mph 24.2 mph N/A   Mostly Cloudy
6:51 AM 28.0 °F 15.3 °F 19.0 °F 69% 29.63 in 10.0 mi NW 18.4 mph - N/A   Mostly Cloudy
7:51 AM 28.9 °F 16.1 °F 19.9 °F 69% 29.63 in 10.0 mi NW 19.6 mph 26.5 mph N/A   Overcast
8:51 AM 28.9 °F 16.1 °F 19.9 °F 69% 29.62 in 10.0 mi WNW 19.6 mph 25.3 mph N/A   Mostly Cloudy
9:49 AM 28.4 °F 14.4 °F 19.4 °F 69% 29.62 in 10.0 mi NW 23.0 mph 31.1 mph N/A   Overcast
9:51 AM 28.9 °F 15.4 °F 19.9 °F 69% 29.63 in 10.0 mi NW 21.9 mph 31.1 mph N/A   Overcast
10:26 AM 30.2 °F 17.8 °F 19.4 °F 64% 29.61 in 10.0 mi NW 19.6 mph 28.8 mph N/A   Overcast
10:43 AM 30.2 °F 18.5 °F 21.2 °F 69% 29.62 in 10.0 mi WNW 17.3 mph - N/A   Mostly Cloudy
10:51 AM 30.9 °F 20.2 °F 21.0 °F 67% 29.62 in 10.0 mi NW 15.0 mph 26.5 mph N/A   Overcast
11:51 AM 30.9 °F 19.8 °F 24.1 °F 76% 29.62 in 3.0 mi NW 16.1 mph 24.2 mph 0.00 in Snow Light Snow
12:26 PM 32.0 °F 21.6 °F 23.0 °F 69% 29.59 in 2.5 mi WNW 15.0 mph 26.5 mph 0.00 in Snow Light Snow
12:29 PM 32.0 °F 21.2 °F 23.0 °F 69% 29.59 in 1.8 mi WNW 16.1 mph 26.5 mph 0.00 in Snow Light Snow
12:36 PM 30.2 °F 18.5 °F 23.0 °F 75% 29.59 in 1.2 mi NW 17.3 mph 25.3 mph 0.00 in Snow Light Snow
12:51 PM 30.9 °F 20.2 °F 25.0 °F 79% 29.61 in 1.0 mi NW 15.0 mph 23.0 mph 0.00 in Snow Light Snow
1:03 PM 30.2 °F 18.9 °F 24.8 °F 80% 29.59 in 2.0 mi NW 16.1 mph 28.8 mph 0.00 in Snow Light Snow
1:12 PM 32.0 °F 21.2 °F 23.0 °F 69% 29.59 in 5.0 mi NW 16.1 mph 27.6 mph 0.00 in Snow Light Snow
1:51 PM 33.1 °F 22.6 °F 21.9 °F 64% 29.60 in 10.0 mi WNW 16.1 mph 21.9 mph 0.00 in   Overcast
2:51 PM 34.0 °F 23.0 °F 23.0 °F 64% 29.61 in 7.0 mi WNW 18.4 mph 24.2 mph 0.00 in Snow Light Snow
3:51 PM 33.1 °F 22.2 °F 24.1 °F 70% 29.62 in 3.0 mi NW 17.3 mph 24.2 mph 0.00 in Snow Light Snow
4:11 PM 32.0 °F 19.8 °F 24.8 °F 75% 29.61 in 2.5 mi NW 20.7 mph 28.8 mph 0.00 in Snow Light Snow
4:21 PM 32.0 °F 21.2 °F 24.8 °F 75% 29.62 in 1.5 mi NW 16.1 mph 31.1 mph 0.00 in Snow Light Snow
4:41 PM 30.2 °F 19.8 °F 26.6 °F 86% 29.63 in 1.2 mi NW 13.8 mph 20.7 mph 0.00 in Snow Light Snow
4:51 PM 30.0 °F 20.0 °F 26.1 °F 85% 29.65 in 1.2 mi NW 12.7 mph - 0.00 in Snow Light Snow
4:59 PM 30.2 °F 20.8 °F 26.6 °F 86% 29.64 in 1.8 mi NW 11.5 mph - 0.01 in Snow Light Snow
5:10 PM 30.2 °F 19.8 °F 26.6 °F 86% 29.64 in 1.5 mi NW 13.8 mph - 0.01 in Snow Light Snow
5:25 PM 30.2 °F 19.8 °F 24.8 °F 80% 29.65 in 2.5 mi NW 13.8 mph - 0.01 in Snow Light Snow
5:34 PM 30.2 °F 20.8 °F 24.8 °F 80% 29.65 in 4.0 mi NW 11.5 mph - 0.01 in Snow Light Snow
5:51 PM 30.0 °F 18.7 °F 23.0 °F 75% 29.68 in 4.0 mi NW 16.1 mph 27.6 mph 0.01 in Snow Light Snow
6:51 PM 30.0 °F 21.7 °F 21.0 °F 69% 29.70 in 10.0 mi NW 9.2 mph 18.4 mph 0.00 in   Overcast
7:51 PM 28.9 °F 17.3 °F 19.9 °F 69% 29.72 in 10.0 mi NW 16.1 mph 23.0 mph N/A   Mostly Cloudy
8:51 PM 28.0 °F 15.3 °F 19.9 °F 72% 29.74 in 10.0 mi NW 18.4 mph 27.6 mph N/A   Overcast
9:51 PM 28.0 °F 21.7 °F 19.0 °F 69% 29.76 in 10.0 mi NW 5.8 mph - N/A   Scattered Clouds
10:51 PM 28.0 °F 20.0 °F 19.0 °F 69% 29.77 in 10.0 mi NW 8.1 mph 20.7 mph N/A   Overcast
11:51 PM 27.0 °F 18.0 °F 19.0 °F 72% 29.79 in 10.0 mi NW 9.2 mph - N/A   Overcast